Location: Cahas Mountain Overlook
(37.0833°N, 80.1000°W)
Time: 03:25:53
(UTC-05:00)

Vanguard 2 Rocket - All Passes

Search period start: 05 December 2023 00:00
Search period end: 15 December 2023 00:00
Orbit: 552 x 3312 km, 32.9° (Epoch: 04 December)

Date Brightness Start Highest point End Pass type
(mag) Time Alt. Az. Time Alt. Az. Time Alt. Az.
05 Dec - 12:23:35 10° SSW 12:36:12 35° SE 12:52:49 10° E daylight
05 Dec - 14:35:12 10° SW 14:52:10 66° SSE 15:11:55 10° E daylight
05 Dec - 16:50:45 10° W 17:10:39 78° S 17:28:29 10° E visible
05 Dec - 19:08:45 10° W 19:28:33 63° SSW 19:42:40 10° SE visible
05 Dec - 21:29:01 10° W 21:43:16 31° SW 21:53:12 10° SSE visible
06 Dec - 11:23:51 10° S 11:33:46 24° SE 11:46:43 10° E daylight
06 Dec - 13:33:19 10° SW 13:48:17 56° SSE 14:07:43 10° E daylight
06 Dec - 15:47:25 10° WSW 16:06:02 77° S 16:25:21 10° E daylight
06 Dec - 18:04:23 10° W 18:24:38 72° SSW 18:40:46 10° ESE visible
06 Dec - 20:23:26 10° W 20:40:51 43° SW 20:53:00 10° SSE visible
06 Dec - 22:49:02 10° WSW 22:53:40 12° SW 22:57:43 10° SW visible
07 Dec - 10:26:23 10° SSE 10:31:52 13° SE 10:38:18 10° ESE daylight
07 Dec - 12:32:07 10° SSW 12:45:01 45° SE 13:02:57 10° E daylight
07 Dec - 14:44:42 10° WSW 15:01:34 72° SSE 15:21:40 10° E daylight
07 Dec - 17:00:29 10° W 17:20:14 77° S 17:38:14 10° ESE visible
07 Dec - 19:18:29 10° W 19:37:45 55° SSW 19:51:58 10° SE visible
07 Dec - 21:39:53 10° W 21:51:55 22° SW 22:01:02 10° S visible
08 Dec - 11:31:44 10° SSW 11:42:24 32° SE 11:57:29 10° E daylight
08 Dec - 13:42:36 10° SW 13:57:30 64° SSE 14:17:28 10° E daylight
08 Dec - 15:57:08 10° W 16:15:39 78° S 16:35:06 10° E daylight
08 Dec - 18:14:06 10° W 18:34:01 65° SSW 18:50:15 10° SE visible
08 Dec - 20:33:34 10° W 20:49:39 34° SW 21:01:32 10° SSE visible
09 Dec - 10:32:31 10° S 10:40:26 21° SE 10:50:59 10° E daylight
09 Dec - 12:41:07 10° SW 12:54:01 54° SSE 13:12:47 10° E daylight
09 Dec - 14:54:21 10° WSW 15:11:06 76° S 15:31:23 10° E daylight
09 Dec - 17:10:15 10° W 17:29:46 72° SSW 17:47:51 10° ESE visible
09 Dec - 19:28:21 10° W 19:46:45 46° SW 20:00:55 10° SSE visible
09 Dec - 21:52:14 10° W 22:00:28 15° SW 22:07:24 10° SSW visible
10 Dec - 09:38:24 10° SE 09:38:56 10° SE 09:39:28 10° ESE daylight
10 Dec - 11:40:20 10° SSW 11:51:13 41° SE 12:07:39 10° E daylight
10 Dec - 13:52:08 10° WSW 14:06:54 71° SSE 14:27:09 10° E daylight
10 Dec - 16:06:55 10° W 16:25:14 77° S 16:44:47 10° ESE daylight
10 Dec - 18:23:53 10° W 18:43:13 57° SSW 18:59:27 10° SE visible
10 Dec - 20:44:18 10° W 20:58:17 25° SW 21:09:22 10° S visible
11 Dec - 10:40:20 10° S 10:49:06 29° SE 11:01:56 10° E daylight
11 Dec - 12:50:28 10° SW 13:03:14 63° SSE 13:22:30 10° E daylight
11 Dec - 15:04:08 10° W 15:20:42 78° S 15:41:04 10° E daylight
11 Dec - 17:20:02 10° W 17:39:09 66° SSW 17:57:15 10° ESE visible
11 Dec - 19:38:29 10° W 19:55:34 36° SW 20:09:22 10° SSE visible
12 Dec - 09:41:42 10° SSE 09:47:33 17° SE 09:55:08 10° E daylight
12 Dec - 11:49:23 10° SW 12:00:15 51° SSE 12:17:29 10° E daylight
12 Dec - 14:01:51 10° WSW 14:16:26 76° S 14:36:49 10° E daylight
12 Dec - 16:16:44 10° W 16:34:46 73° SSW 16:54:19 10° ESE daylight
12 Dec - 18:33:46 10° W 18:52:14 47° SSW 19:08:17 10° SE visible
12 Dec - 20:56:12 10° W 21:06:51 18° SW 21:15:59 10° SSW visible
13 Dec - 10:48:55 10° SSW 10:57:56 37° SE 11:12:11 10° E daylight
13 Dec - 13:00:04 10° WSW 13:12:40 70° SSE 13:32:08 10° E daylight
13 Dec - 15:13:57 10° W 15:30:18 77° S 15:50:42 10° ESE daylight
13 Dec - 17:29:51 10° W 17:48:23 58° SSW 18:06:21 10° SE visible
13 Dec - 19:49:09 10° W 20:04:15 28° SW 20:17:08 10° S visible
14 Dec - 09:49:17 10° S 09:56:16 24° SE 10:06:25 10° E daylight
14 Dec - 11:58:46 10° SW 12:09:30 60° SSE 12:27:10 10° E daylight
14 Dec - 14:11:40 10° W 14:26:04 77° S 14:46:27 10° E daylight
14 Dec - 16:26:33 10° W 16:44:12 66° SSW 17:03:38 10° ESE daylight
14 Dec - 18:43:56 10° W 19:01:07 38° SW 19:16:38 10° SSE visible
14 Dec - 21:12:26 10° WSW 21:15:27 11° SW 21:18:20 10° SW visible
